AR312 Weather Reports


time (UTC)temp
C
wind
direction
speed
KPH
gust
KPH
rain 1hr
cm
rain 24hr
cm
rain mn
cm
humidity
%
barometer
mb
20260503194005 15 225 8.0 16.1 0.00 0.03 0.03 68 1012.7
20260503193504 16 174 9.7 19.3 0.00 0.03 0.03 68 1012.7
20260503193005 18 0 3.2 3.2 0.00 0.00 0.00 65 1020.0
20260503192505 16 202 4.8 11.3 0.00 0.03 0.03 67 1012.7
20260503191504 16 198 4.8 8.0 0.00 0.03 0.03 69 1012.5
20260503191004 18 0 3.2 3.2 0.00 0.00 0.00 65 1020.0
20260503190504 18 0 3.2 3.2 0.00 0.00 0.00 65 1020.0
20260503190004 18 0 3.2 3.2 0.00 0.00 0.00 65 1020.0
20260503185504 16 172 8.0 12.9 0.00 0.03 0.03 68 1012.5
20260503184004 18 163 1.6 12.9 0.00 0.03 0.03 61 1012.5
20260503183504 17 333 1.6 8.0 0.00 0.03 0.03 61 1012.5
20260503183005 16 239 1.6 9.7 0.00 0.03 0.03 62 1012.5
20260503182505 16 285 0.0 8.0 0.00 0.03 0.03 61 1012.5
20260503182005 16 194 0.0 4.8 0.00 0.03 0.03 63 1012.5
20260503181505 18 0 3.2 3.2 0.00 0.00 0.00 65 1020.0
20260503181004 16 325 1.6 14.5 0.00 0.03 0.03 63 1012.5
20260503180504 16 264 3.2 9.7 0.00 0.03 0.03 65 1012.5
20260503180005 16 232 3.2 8.0 0.00 0.03 0.03 66 1012.5
20260503175504 16 186 4.8 9.7 0.00 0.03 0.03 67 1012.5
20260503174504 15 230 0.0 4.8 0.00 0.03 0.03 69 1012.0
20260503174004 15 197 1.6 8.0 0.00 0.03 0.03 70 1012.0
20260503173504 15 270 1.6 9.7 0.00 0.03 0.03 71 1012.0
20260503173004 15 309 1.6 4.8 0.00 0.03 0.03 71 1012.0
20260503172504 18 0 3.2 3.2 0.00 0.00 0.00 65 1020.0
20260503171505 18 0 3.2 3.2 0.00 0.00 0.00 65 1020.0
20260503171004 18 0 3.2 3.2 0.00 0.00 0.00 65 1020.0
20260503170505 18 0 3.2 3.2 0.00 0.00 0.00 65 1020.0
20260503151005 18 0 3.2 3.2 0.00 0.00 0.00 65 1020.0
20260503150504 18 0 3.2 3.2 0.00 0.00 0.00 65 1020.0
20260503130504 11 250 0.0 0.0 0.00 0.03 0.00 90 1010.3
20260503110505 11 229 0.0 0.0 0.00 0.03 0.00 88 1010.3
20260503090504 18 0 3.2 3.2 0.00 0.00 0.00 65 1020.0
20260503081504 18 0 3.2 3.2 0.00 0.00 0.00 65 1020.0
20260503081004 18 0 3.2 3.2 0.00 0.00 0.00 65 1020.0
20260503080504 18 0 3.2 3.2 0.00 0.00 0.00 65 1020.0
20260503072504 12 113 0.0 0.0 0.00 0.03 0.00 80 1010.8
20260503072004 18 0 3.2 3.2 0.00 0.00 0.00 65 1020.0
20260503071005 18 0 3.2 3.2 0.00 0.00 0.00 65 1020.0
20260503070504 12 113 0.0 0.0 0.00 0.03 0.00 80 1010.8
20260503055004 12 77 0.0 0.0 0.00 0.03 0.03 80 1011.0
20260503054504 12 131 0.0 0.0 0.00 0.03 0.03 80 1011.0
20260503054004 12 131 0.0 0.0 0.00 0.03 0.03 80 1011.0
20260503053004 12 0 0.0 0.0 0.00 0.03 0.03 80 1011.0
20260503052504 12 96 0.0 4.8 0.00 0.03 0.03 80 1011.0
20260503052004 12 130 0.0 0.0 0.00 0.03 0.03 80 1011.0
20260503051505 18 0 3.2 3.2 0.00 0.00 0.00 65 1020.0
20260503050504 12 90 1.6 9.7 0.00 0.03 0.03 79 1011.0
20260503050004 12 156 1.6 4.8 0.00 0.03 0.03 79 1011.0
20260503045504 18 0 3.2 3.2 0.00 0.00 0.00 65 1020.0
20260503045004 12 88 1.6 9.7 0.00 0.03 0.03 79 1010.6
20260503044504 12 121 3.2 8.0 0.00 0.03 0.03 79 1010.6
20260503044004 12 122 1.6 8.0 0.00 0.03 0.03 79 1010.6
20260503043504 12 61 3.2 8.0 0.00 0.03 0.03 79 1010.6
20260503043005 18 0 3.2 3.2 0.00 0.00 0.00 65 1020.0
20260503042505 12 96 0.0 9.7 0.00 0.03 0.03 78 1010.6
20260503042005 12 54 4.8 9.7 0.00 0.03 0.03 78 1010.6
20260503041504 12 115 1.6 9.7 0.00 0.03 0.03 79 1010.3
20260503041004 18 0 3.2 3.2 0.00 0.00 0.00 65 1020.0
20260503040004 18 0 3.2 3.2 0.00 0.00 0.00 65 1020.0
20260503035504 12 67 0.0 9.7 0.00 0.03 0.03 79 1009.9
20260503035004 18 0 3.2 3.2 0.00 0.00 0.00 65 1020.0
20260503034004 12 79 1.6 8.0 0.00 0.03 0.03 79 1009.9
20260503033505 12 53 6.4 8.0 0.00 0.03 0.03 79 1009.9
20260503033004 12 101 1.6 4.8 0.00 0.03 0.03 79 1009.9
20260503032505 12 68 1.6 4.8 0.00 0.03 0.03 79 1009.9
20260503032004 18 0 3.2 3.2 0.00 0.00 0.00 65 1020.0
20260503031505 18 0 3.2 3.2 0.00 0.00 0.00 65 1020.0
20260503031004 18 0 3.2 3.2 0.00 0.00 0.00 65 1020.0
20260503030504 13 147 1.6 9.7 0.00 0.03 0.03 79 1009.8
20260503025504 18 0 3.2 3.2 0.00 0.00 0.00 65 1020.0
20260503024504 18 0 3.2 3.2 0.00 0.00 0.00 65 1020.0
20260503024005 13 139 3.2 11.3 0.00 0.03 0.03 77 1009.7
20260503023505 13 138 0.0 4.8 0.00 0.03 0.03 76 1009.7
20260503023004 13 131 3.2 9.7 0.00 0.03 0.03 76 1009.7
20260503022504 13 134 0.0 4.8 0.00 0.03 0.03 75 1009.7
20260503022004 18 0 3.2 3.2 0.00 0.00 0.00 65 1020.0
20260503021504 18 0 3.2 3.2 0.00 0.00 0.00 65 1020.0
20260503021004 14 143 0.0 4.8 0.00 0.03 0.03 74 1009.8
20260503020504 14 142 3.2 11.3 0.00 0.03 0.03 73 1009.8
20260503020004 18 0 3.2 3.2 0.00 0.00 0.00 65 1020.0
20260503015504 18 0 3.2 3.2 0.00 0.00 0.00 65 1020.0
20260503015005 14 134 6.4 9.7 0.00 0.03 0.03 72 1009.9
20260503014504 15 108 0.0 4.8 0.00 0.03 0.03 72 1009.9
20260503014004 15 132 3.2 11.3 0.00 0.03 0.03 72 1009.9
20260503013004 15 148 3.2 9.7 0.00 0.03 0.03 71 1009.9
20260503012505 15 156 4.8 9.7 0.00 0.03 0.03 70 1009.9
20260503012004 15 148 1.6 4.8 0.00 0.03 0.03 70 1009.9
20260503011004 15 127 1.6 4.8 0.00 0.03 0.03 70 1009.9
20260503010504 15 185 3.2 9.7 0.00 0.03 0.03 70 1009.9
20260503010004 15 144 4.8 9.7 0.00 0.03 0.03 69 1009.9
20260503005505 18 0 3.2 3.2 0.00 0.00 0.00 65 1020.0
20260503005004 15 141 3.2 4.8 0.00 0.03 0.03 69 1009.9
20260503004504 18 0 3.2 3.2 0.00 0.00 0.00 65 1020.0
20260503004004 18 0 3.2 3.2 0.00 0.00 0.00 65 1020.0
20260503003504 16 132 3.2 11.3 0.00 0.03 0.03 67 1009.9
20260503003004 16 107 3.2 11.3 0.00 0.03 0.03 66 1010.1
20260503002004 18 0 3.2 3.2 0.00 0.00 0.00 65 1020.0
20260503001504 18 0 3.2 3.2 0.00 0.00 0.00 65 1020.0
20260503001004 16 148 6.4 11.3 0.00 0.03 0.03 65 1010.1
20260503000504 16 172 3.2 11.3 0.00 0.03 0.03 66 1010.1
20260503000005 16 154 6.4 11.3 0.00 0.03 0.03 66 1010.1
20260502235004 18 0 3.2 3.2 0.00 0.00 0.00 65 1020.0
20260502234504 17 188 4.8 9.7 0.00 0.03 0.03 65 1010.4
20260502233004 17 157 3.2 9.7 0.00 0.03 0.03 65 1011.4
20260502232504 17 170 8.0 12.9 0.00 0.03 0.03 64 1011.4
20260502232005 17 177 1.6 4.8 0.00 0.03 0.03 66 1011.4
20260502231504 16 155 4.8 11.3 0.00 0.03 0.03 65 1011.4
20260502231004 17 156 6.4 11.3 0.00 0.03 0.03 65 1011.4
20260502230504 17 151 4.8 11.3 0.00 0.03 0.03 66 1011.4
20260502230004 17 146 4.8 11.3 0.00 0.03 0.03 65 1011.4
20260502225504 18 0 3.2 3.2 0.00 0.00 0.00 65 1020.0
20260502225004 18 0 3.2 3.2 0.00 0.00 0.00 65 1020.0
20260502224504 16 204 3.2 11.3 0.00 0.03 0.03 66 1011.4
20260502224005 18 0 3.2 3.2 0.00 0.00 0.00 65 1020.0
20260502223505 17 180 3.2 11.3 0.00 0.03 0.03 68 1011.4
20260502223005 18 0 3.2 3.2 0.00 0.00 0.00 65 1020.0
20260502222505 16 144 4.8 9.7 0.00 0.03 0.03 68 1012.1
20260502222004 16 232 1.6 8.0 0.00 0.03 0.03 68 1012.1
20260502221504 16 181 1.6 8.0 0.00 0.03 0.03 70 1012.1
20260502221004 16 158 4.8 11.3 0.00 0.03 0.03 70 1012.1
20260502220504 16 167 3.2 9.7 0.00 0.03 0.03 71 1012.1
20260502220004 16 141 3.2 9.7 0.00 0.03 0.03 71 1012.1
20260502215504 18 0 3.2 3.2 0.00 0.00 0.00 65 1020.0
20260502215004 18 0 3.2 3.2 0.00 0.00 0.00 65 1020.0
20260502214505 15 140 3.2 9.7 0.00 0.03 0.03 71 1012.6
20260502214004 16 142 6.4 12.9 0.00 0.03 0.03 70 1012.6
20260502213504 18 0 3.2 3.2 0.00 0.00 0.00 65 1020.0
20260502213004 18 0 3.2 3.2 0.00 0.00 0.00 65 1020.0
20260502212504 18 0 3.2 3.2 0.00 0.00 0.00 65 1020.0
20260502212004 15 248 1.6 8.0 0.00 0.03 0.03 75 1012.6
20260502211504 15 165 1.6 3.2 0.00 0.03 0.03 75 1012.6
20260502211004 15 182 0.0 4.8 0.00 0.03 0.03 75 1012.6
20260502210504 18 0 3.2 3.2 0.00 0.00 0.00 65 1020.0
20260502210004 18 0 3.2 3.2 0.00 0.00 0.00 65 1020.0
20260502205504 15 179 1.6 4.8 0.00 0.03 0.03 76 1012.6
20260502204505 18 0 3.2 3.2 0.00 0.00 0.00 65 1020.0
20260502204004 14 145 1.6 4.8 0.00 0.03 0.03 78 1012.9
20260502203504 18 0 3.2 3.2 0.00 0.00 0.00 65 1020.0
20260502203004 18 0 3.2 3.2 0.00 0.00 0.00 65 1020.0
20260502202504 18 0 3.2 3.2 0.00 0.00 0.00 65 1020.0
20260502202004 18 0 3.2 3.2 0.00 0.00 0.00 65 1020.0
20260502201504 14 167 1.6 9.7 0.00 0.03 0.03 80 1013.2
20260502201004 14 169 1.6 8.0 0.00 0.03 0.03 79 1013.6
20260502200504 18 0 3.2 3.2 0.00 0.00 0.00 65 1020.0
20260502195004 18 0 3.2 3.2 0.00 0.00 0.00 65 1020.0
20260502194504 14 203 3.2 8.0 0.00 0.03 0.03 80 1013.6